Home   Weather   Arendal   Past weeks

Flag for Norway Past Weather in Arendal, Norway — Yesterday and Last 2 Weeks

Now
43 °F

Quite cool.


Feels Like: 41 °F
Forecast: 37 / 49 °F
Wind: 3 mph from North

Location: Torungen Fyr

Current Time: Apr 29, 2017 at 11:56:59 pm

Latest Report: Apr 29, 2017 at 11:00 pm


Visibility: N/A

Pressure: 30.19 "Hg

Humidity: 71%

Dew Point: 34 °F

Location of ArendalLocation

Past Weather in Arendal — Graph

°F

Arendal Temperature Yesterday

Maximum temperature yesterday: 44 °F (at 10:00 pm)
Minimum temperature yesterday: 35 °F (at 6:00 am)
Average temperature yesterday: 38 °F

High & Low Weather Summary for the Past Weeks

 TemperatureHumidityPressure
High53 °F (Apr 21, 1:00 pm)98% (Apr 17, 1:00 pm)30.58 "Hg (Apr 17, 1:00 pm)
Low32 °F (Apr 16, 6:00 am)26% (Apr 22, 3:00 pm)29.35 "Hg (Apr 24, 9:00 am)
Average42 °F68%29.95 "Hg
* Reported Apr 14 10:00 pm — Apr 29 10:00 pm, Arendal, Weather by CustomWeather, © 2017

Note: Actual official high and low records may vary slightly from our data, if they occured in-between our weather recording intervals... More about our weather records

Advertising

Arendal Weather History for the Previous 24 Hours

Scroll right to see more
 ConditionsComfort  
Time TempWeatherWind HumidityBarometerVisibility
10:00 pm
Sat, Apr 29
44 °FQuite cool.3 mph68%30.18 "HgN/A
9:00 pm46 °FCool.5 mph63%30.18 "HgN/A
8:00 pm46 °FCool.6 mph67%30.17 "HgN/A
7:00 pm46 °FCool.3 mph70%30.17 "HgN/A
6:00 pm46 °FCool.7 mph68%30.17 "HgN/A
5:00 pm46 °FCool.7 mph69%30.18 "HgN/A
4:00 pm46 °FCool.9 mph67%30.18 "HgN/A
3:00 pm45 °FCool.8 mph68%30.18 "HgN/A
2:00 pm44 °FQuite cool.13 mph71%30.17 "HgN/A
1:00 pm43 °FQuite cool.14 mph71%30.16 "HgN/A
12:00 pm42 °FQuite cool.14 mph75%30.16 "HgN/A
11:00 am41 °FQuite cool.15 mph78%30.15 "HgN/A
10:00 am40 °FChilly.15 mph82%30.15 "HgN/A
9:00 am40 °FQuite cool.16 mph85%30.13 "HgN/A
8:00 am41 °FQuite cool.15 mph86%30.12 "HgN/A
7:00 am41 °FQuite cool.13 mph88%30.10 "HgN/A
6:00 am42 °FQuite cool.14 mph89%30.08 "HgN/A
5:00 am42 °FQuite cool.13 mph87%30.06 "HgN/A
4:00 am43 °FQuite cool.10 mph89%30.03 "HgN/A
3:00 am42 °FQuite cool.12 mph93%30.02 "HgN/A
2:00 am42 °FQuite cool.15 mph91%30.00 "HgN/A
1:00 am42 °FQuite cool.13 mph90%29.97 "HgN/A
12:00 am43 °FQuite cool.8 mph92%29.96 "HgN/A
11:00 pm
Fri, Apr 28
44 °FQuite cool.10 mph91%29.94 "HgN/A
Weather by CustomWeather, © 2017

See weather overviewHow to use our weather pages